FENGYUN 1C DEB, 30858

Orbit data source: Space-Track

FENGYUN 1C DEB, 30858 is space debris in SSO originally from a launch on Mon, 10 May 1999 UTC launched from the Taiyaun Space Center, China (TSC). Fengyun 1C debris stems from the Chinese weather satellite Fengyun-1C, which was intentionally destroyed by a Chinese anti-satellite missile in 2007. This event dramatically increased the amount of space debris, with thousands of trackable fragments posing hazards to satellites and human spaceflight. The Fengyun 1C debris cloud has become a focal point in discussions about space sustainability and the need for international regulations to prevent the creation of new debris.

Loading next visibility...
Identifier
30858, 1999-025AWU
Orbit
SSO
Country
Flag of CNCN / PRC
Related business
Manufacturer
Unknown
Mission
Spacecraft
Bus & Motor
Unknown
Mass
Unknown
Launch date (UTC)
1999-05-10 (27 years ago)
Launch vehicle
Unknown
Launch site
Taiyaun Space Center, China (TSC)
Object type
Payload
Rocket body
Debris
Shape & HBR
Unknown shape, 0.1 m
Radar Cross Section
Medium (>0.1 m² and <1 m²)

Expand to show TLE details & history
Last TLE update: 16 hours ago

TLE from 16 hours ago
0 FENGYUN 1C DEB
1 30858U 99025AWU 26236.45637970  .00000422  00000-0  22561-3 0  9996
2 30858  98.7704 296.3174 0031089 100.2977 275.5781 14.18131336  5900
Epoch: 2026-08-24T10:57Z
TLE epoch observation values (Epoch: 2026-08-24T10:57:11.206Z)
Latitude
15.31249°
Longitude
156.87468°
Altitude
831.785 km
Speed
7.439 km/s
True Right ascension
19h 35m 38s
True Declination
15° 13' 34"
Sunlit
Object was in full shadow at epoch
Visualization orbit readout
Latitude
Unknown
Longitude
Unknown
Altitude
Unknown
Speed
Unknown
Apparent Right ascension
Unknown
Apparent Declination
Unknown
Sunlit
N/A
Visualization observer readout
Local Sidereal Time
18:20:39
Azimuth
Unknown
Elevation
Unknown
Doppler factor
Unknown
Orbital elements
Apogee altitude
851.249 km
Perigee altitude
806.438 km
Semi-major axis
7,206.98 km
Eccentricity
0.00311
Inclination
98.7704°
RAAN
296.3174°
Arg. of periapsis
100.2977°
True anomaly
275.2234°
Mean anomaly
275.5781°
Eccentric anomaly
275.40076°
Mean motion
3.54742 °/min
Orbital period
101.48 mins
BSTAR
0.00022561
Loading maneuver chart data...
Computing Atmospheric mass density...

Documentation

Showing up to 5 results
|